DW3793 Weather Reports


Display with metric or nautical units.
time (UTC)temp
F
wind
direction
speed
MPH
gust
MPH
rain 1hr
in
rain 24hr
in
rain mn
in
humidity
%
barometer
mb
20260905201520 61 313 0.0 1.0 0.00 0.00 0.00 61 1017.2
20260905200028 61 333 0.0 1.0 0.00 0.00 0.00 62 1017.0
20260905194516 61 215 0.0 1.0 0.00 0.00 0.00 61 1016.9
20260905193017 60 194 0.0 4.0 0.00 0.00 0.00 66 1016.9
20260905191515 60 338 0.0 1.0 0.00 0.00 0.00 65 1017.1
20260905190022 61 217 0.0 0.0 0.00 0.00 0.00 62 1017.4
20260905184546 60 223 0.0 1.0 0.00 0.00 0.00 60 1017.4
20260905183049 61 237 0.0 1.0 0.00 0.00 0.00 60 1017.4
20260905181547 61 251 0.0 3.0 0.00 0.00 0.00 60 1017.5
20260905180039 61 350 0.0 4.0 0.00 0.00 0.00 61 1017.6
20260905174540 60 241 0.0 2.0 0.00 0.00 0.00 64 1017.6
20260905173033 59 322 0.0 2.0 0.00 0.00 0.00 64 1017.6
20260905171539 57 149 0.0 1.0 0.00 0.00 0.00 70 1017.9
20260905170025 56 53 0.0 2.0 0.00 0.00 0.00 70 1017.9
20260905164520 54 249 0.0 4.0 0.00 0.00 0.00 74 1017.8
20260905163018 52 355 0.0 3.0 0.00 0.00 0.00 76 1017.9
20260905161512 51 213 0.0 3.0 0.00 0.00 0.00 83 1017.9
20260905160018 50 310 0.0 1.0 0.00 0.00 0.00 83 1017.7
20260905154511 50 36 0.0 2.0 0.00 0.00 0.00 82 1018.1
20260905153010 51 299 0.0 3.0 0.00 0.00 0.00 82 1018.0
20260905151508 51 308 0.0 1.0 0.00 0.00 0.00 84 1017.9
20260905150003 49 168 0.0 0.0 0.00 0.00 0.00 83 1018.0
20260905144559 49 168 0.0 0.0 0.00 0.00 0.00 84 1017.9
20260905143056 48 161 0.0 0.0 0.00 0.00 0.00 86 1017.8
20260905141600 47 75 0.0 0.0 0.00 0.00 0.00 88 1017.8
20260905140055 46 64 0.0 1.0 0.00 0.00 0.00 88 1017.7
20260905134550 46 205 0.0 3.0 0.00 0.00 0.00 88 1017.5
20260905133049 46 95 0.0 0.0 0.00 0.00 0.00 89 1017.3
20260905131559 46 338 0.0 0.0 0.00 0.00 0.00 89 1017.4
20260905130045 46 338 0.0 0.0 0.00 0.00 0.00 89 1017.4
20260905124545 45 345 0.0 0.0 0.00 0.00 0.00 90 1017.3
20260905123043 45 345 0.0 0.0 0.00 0.00 0.00 90 1017.3
20260905121543 44 345 0.0 0.0 0.00 0.00 0.00 89 1017.5
20260905120041 45 345 0.0 0.0 0.00 0.00 0.00 87 1017.4
20260905114543 46 254 0.0 0.0 0.00 0.00 0.00 86 1017.1
20260905113036 46 254 0.0 0.0 0.00 0.00 0.00 85 1017.0
20260905111542 46 125 0.0 0.0 0.00 0.00 0.00 84 1016.8
20260905110033 46 63 0.0 1.0 0.00 0.00 0.00 84 1016.9
20260905104538 46 142 0.0 0.0 0.00 0.00 0.00 83 1017.0
20260905103037 47 142 0.0 0.0 0.00 0.00 0.00 82 1016.9
20260905101531 46 144 0.0 0.0 0.00 0.00 0.00 84 1017.0
20260905100030 46 17 0.0 0.0 0.00 0.00 0.00 83 1017.1
20260905094527 47 130 0.0 1.0 0.00 0.00 0.00 80 1016.9
20260905093027 48 113 0.0 1.0 0.00 0.00 0.00 79 1016.9
20260905091525 47 123 0.0 1.0 0.00 0.00 0.00 80 1016.9
20260905090020 47 119 0.0 1.0 0.00 0.00 0.00 81 1016.9
20260905084518 46 122 0.0 1.0 0.00 0.00 0.00 82 1017.0
20260905083015 45 156 0.0 1.0 0.00 0.00 0.00 84 1016.9
20260905081513 45 154 0.0 1.0 0.00 0.00 0.00 86 1016.9
20260905080007 45 108 0.0 0.0 0.00 0.00 0.00 86 1016.8
20260905074505 45 178 0.0 0.0 0.00 0.00 0.00 85 1016.8
20260905073002 46 178 0.0 0.0 0.00 0.00 0.00 82 1016.4
20260905071559 47 178 0.0 0.0 0.00 0.00 0.00 82 1016.0
20260905070031 48 178 0.0 0.0 0.00 0.00 0.00 79 1015.8
20260905064527 50 178 0.0 0.0 0.00 0.00 0.00 76 1015.7
20260905063059 50 128 0.0 0.0 0.00 0.00 0.00 76 1015.6
20260905061558 49 155 0.0 0.0 0.00 0.00 0.00 78 1015.6
20260905060055 49 101 0.0 0.0 0.00 0.00 0.00 78 1015.4
20260905054554 50 90 0.0 0.0 0.00 0.01 0.00 78 1015.4
20260905053053 51 90 0.0 0.0 0.00 0.01 0.00 75 1015.3
20260905051554 52 90 0.0 1.0 0.00 0.01 0.00 72 1015.2
20260905050050 52 95 0.0 1.0 0.00 0.01 0.00 69 1015.4
20260905044550 53 227 0.0 0.0 0.00 0.11 0.00 68 1015.3
20260905043049 53 138 0.0 1.0 0.00 0.11 0.00 67 1015.3
20260905041549 53 140 0.0 2.0 0.00 0.11 0.00 68 1015.3
20260905040052 54 114 0.0 2.0 0.00 0.11 0.00 68 1015.2
20260905034546 53 145 0.0 1.0 0.00 0.18 0.00 70 1015.3
20260905033050 53 103 0.0 0.0 0.00 0.18 0.00 71 1015.2
20260905031553 53 97 0.0 1.0 0.00 0.18 0.00 70 1015.2
20260905030015 53 101 0.0 0.0 0.00 0.18 0.00 70 1015.1
20260905024516 54 128 0.0 0.0 0.00 0.24 0.00 70 1015.1
20260905023014 55 118 0.0 1.0 0.00 0.24 0.00 70 1015.0
20260905021510 57 150 0.0 1.0 0.00 0.24 0.00 67 1014.9
20260905020012 58 294 0.0 0.0 0.00 0.24 0.00 64 1014.9
20260905014510 60 293 0.0 0.0 0.00 0.31 0.00 59 1014.8
20260905013041 61 293 0.0 0.0 0.00 0.31 0.00 53 1014.7
20260905011548 63 293 0.0 0.0 0.00 0.31 0.00 48 1014.6
20260905010037 64 266 0.0 1.0 0.00 0.31 0.00 47 1014.5
20260905004539 65 117 0.0 1.0 0.00 0.35 0.00 49 1014.4
20260905003036 66 229 0.0 1.0 0.00 0.35 0.00 49 1014.5
20260905001539 64 299 0.0 1.0 0.00 0.35 0.00 51 1014.4
20260905000041 64 319 0.0 6.0 0.00 0.35 0.00 53 1014.5
20260904234537 65 347 0.0 4.0 0.00 0.39 0.00 53 1014.4
20260904233032 65 325 0.0 8.0 0.00 0.39 0.00 51 1014.5
20260904231535 63 18 1.0 4.0 0.00 0.39 0.00 55 1014.6
20260904230049 65 245 0.0 2.0 0.00 0.39 0.00 56 1014.6
20260904224527 65 211 0.0 4.0 0.00 0.43 0.00 49 1014.6
20260904223027 64 245 0.0 3.0 0.00 0.43 0.00 49 1014.6
20260904221526 64 267 0.0 3.0 0.00 0.43 0.00 50 1014.5
20260904220026 66 275 0.0 3.0 0.00 0.43 0.00 47 1014.6
20260904214521 67 226 0.0 5.0 0.00 0.43 0.00 49 1014.7
20260904213021 67 267 0.0 5.0 0.00 0.43 0.00 49 1014.7
20260904211519 65 213 1.0 4.0 0.00 0.43 0.00 53 1014.7
20260904210020 63 238 0.0 6.0 0.00 0.43 0.00 56 1014.7
20260904204503 63 69 0.0 2.0 0.00 0.43 0.00 57 1014.8
20260904203102 61 26 0.0 3.0 0.00 0.43 0.00 62 1014.8